Time,TemperatureF,DewpointF,PressureIn,WindDirection,WindDirectionDegrees,WindSpeedMPH,WindSpeedGustMPH,Humidity,HourlyPrecipIn,Conditions,Clouds,dailyrainin,SoftwareType,DateUTC
2013-02-14 00:02:00,65.0,59.0,29.96,NNW,341,0.0,1.0,82,0.00,,,0.00,,2013-02-14 05:02:00,
2013-02-14 00:11:00,65.0,59.0,29.96,NNW,341,0.0,1.0,82,0.00,,,0.00,,2013-02-14 05:11:00,
2013-02-14 00:22:00,65.0,59.0,29.96,NW,319,0.0,0.0,82,0.00,,,0.00,,2013-02-14 05:22:00,
2013-02-14 00:32:00,65.0,60.0,29.95,NW,321,0.0,0.0,83,0.00,,,0.00,,2013-02-14 05:32:00,
2013-02-14 00:42:00,65.0,60.0,29.95,NW,321,0.0,0.0,83,0.00,,,0.00,,2013-02-14 05:42:00,
2013-02-14 00:52:00,65.0,60.0,29.96,NW,321,0.0,0.0,84,0.00,,,0.00,,2013-02-14 05:52:00,
2013-02-14 01:02:00,65.0,60.0,29.96,NW,321,0.0,0.0,84,0.00,,,0.00,,2013-02-14 06:02:00,
2013-02-14 01:11:00,65.0,60.0,29.96,NW,321,0.0,0.0,85,0.00,,,0.00,,2013-02-14 06:11:00,
2013-02-14 01:21:00,65.0,60.0,29.96,NW,321,0.0,0.0,85,0.00,,,0.00,,2013-02-14 06:21:00,
2013-02-14 01:32:00,64.0,60.0,29.96,NW,321,0.0,0.0,86,0.00,,,0.00,,2013-02-14 06:32:00,
2013-02-14 01:42:00,64.0,60.0,29.96,NW,321,0.0,0.0,86,0.00,,,0.00,,2013-02-14 06:42:00,
2013-02-14 01:51:00,64.0,60.0,29.95,NW,321,0.0,0.0,88,0.00,,,0.00,,2013-02-14 06:51:00,
2013-02-14 02:01:00,64.0,60.0,29.95,NW,321,0.0,0.0,88,0.00,,,0.00,,2013-02-14 07:01:00,
2013-02-14 02:11:00,64.0,60.0,29.94,NW,321,0.0,0.0,88,0.00,,,0.00,,2013-02-14 07:11:00,
2013-02-14 02:21:00,64.0,60.0,29.94,NW,321,0.0,0.0,88,0.00,,,0.00,,2013-02-14 07:21:00,
2013-02-14 02:32:00,64.0,61.0,29.94,NW,321,0.0,0.0,89,0.00,,,0.00,,2013-02-14 07:32:00,
2013-02-14 02:42:00,64.0,61.0,29.94,NW,321,0.0,0.0,89,0.00,,,0.00,,2013-02-14 07:42:00,
2013-02-14 02:51:00,63.0,60.0,29.93,NW,321,0.0,0.0,89,0.00,,,0.00,,2013-02-14 07:51:00,
2013-02-14 03:01:00,63.0,60.0,29.91,NW,321,0.0,0.0,89,0.00,,,0.00,,2013-02-14 08:01:00,
2013-02-14 03:11:00,63.0,60.0,29.91,NW,321,0.0,0.0,89,0.00,,,0.00,,2013-02-14 08:11:00,
2013-02-14 03:21:00,63.0,60.0,29.94,NW,321,0.0,0.0,90,0.00,,,0.00,,2013-02-14 08:21:00,
2013-02-14 03:32:00,63.0,60.0,29.95,NW,321,0.0,0.0,91,0.00,,,0.00,,2013-02-14 08:32:00,
2013-02-14 03:43:00,63.0,60.0,29.95,NW,321,0.0,0.0,91,0.00,,,0.00,,2013-02-14 08:43:00,
2013-02-14 03:52:00,63.0,60.0,29.94,NW,321,0.0,0.0,91,0.00,,,0.00,,2013-02-14 08:52:00,
2013-02-14 04:02:00,63.0,60.0,29.93,NW,321,0.0,0.0,91,0.00,,,0.00,,2013-02-14 09:02:00,
2013-02-14 04:11:00,63.0,60.0,29.93,NW,321,0.0,0.0,91,0.00,,,0.00,,2013-02-14 09:11:00,
2013-02-14 04:21:00,63.0,60.0,29.93,NW,321,0.0,0.0,91,0.00,,,0.00,,2013-02-14 09:21:00,
2013-02-14 04:32:00,63.0,60.0,29.94,NW,321,0.0,0.0,91,0.00,,,0.00,,2013-02-14 09:32:00,
2013-02-14 04:42:00,63.0,60.0,29.94,NW,321,0.0,0.0,91,0.00,,,0.00,,2013-02-14 09:42:00,
2013-02-14 04:52:00,62.0,60.0,29.94,NW,321,0.0,0.0,92,0.00,,,0.00,,2013-02-14 09:52:00,
2013-02-14 05:02:00,62.0,60.0,29.93,NW,321,0.0,0.0,92,0.00,,,0.00,,2013-02-14 10:02:00,
2013-02-14 05:11:00,63.0,61.0,29.93,NW,321,0.0,0.0,92,0.00,,,0.00,,2013-02-14 10:11:00,
2013-02-14 05:21:00,63.0,61.0,29.93,NW,321,0.0,0.0,92,0.00,,,0.00,,2013-02-14 10:21:00,
2013-02-14 05:31:00,63.0,61.0,29.93,NW,321,0.0,0.0,92,0.00,,,0.00,,2013-02-14 10:31:00,
2013-02-14 05:42:00,63.0,61.0,29.93,NW,321,0.0,0.0,92,0.00,,,0.00,,2013-02-14 10:42:00,
2013-02-14 05:52:00,62.0,60.0,29.93,NW,321,0.0,0.0,92,0.00,,,0.00,,2013-02-14 10:52:00,
2013-02-14 06:02:00,62.0,60.0,29.93,NW,321,0.0,0.0,92,0.00,,,0.00,,2013-02-14 11:02:00,
2013-02-14 06:11:00,61.0,59.0,29.94,NW,321,0.0,0.0,93,0.00,,,0.00,,2013-02-14 11:11:00,
2013-02-14 06:21:00,61.0,59.0,29.94,NW,321,0.0,0.0,93,0.00,,,0.00,,2013-02-14 11:21:00,
2013-02-14 06:32:00,60.0,58.0,29.94,NW,321,0.0,0.0,93,0.00,,,0.00,,2013-02-14 11:32:00,
2013-02-14 06:42:00,60.0,58.0,29.94,NW,321,0.0,0.0,93,0.00,,,0.00,,2013-02-14 11:42:00,
2013-02-14 06:52:00,60.0,58.0,29.94,NW,321,0.0,0.0,94,0.00,,,0.00,,2013-02-14 11:52:00,
2013-02-14 07:02:00,60.0,59.0,29.94,NW,321,0.0,0.0,95,0.00,,,0.00,,2013-02-14 12:02:00,
2013-02-14 07:12:00,60.0,59.0,29.94,NW,321,0.0,0.0,95,0.00,,,0.00,,2013-02-14 12:12:00,
2013-02-14 07:22:00,61.0,60.0,29.95,NW,321,0.0,0.0,95,0.00,,,0.00,,2013-02-14 12:22:00,
2013-02-14 07:32:00,61.0,60.0,29.95,NW,321,0.0,0.0,95,0.00,,,0.00,,2013-02-14 12:32:00,
2013-02-14 07:42:00,61.0,60.0,29.95,NW,321,0.0,0.0,96,0.00,,,0.00,,2013-02-14 12:42:00,
2013-02-14 07:53:00,61.0,60.0,29.95,NW,321,0.0,0.0,96,0.00,,,0.00,,2013-02-14 12:53:00,
2013-02-14 08:02:00,61.0,60.0,29.96,NW,321,0.0,0.0,96,0.00,,,0.00,,2013-02-14 13:02:00,
2013-02-14 08:11:00,62.0,61.0,29.96,NW,321,0.0,0.0,96,0.00,,,0.00,,2013-02-14 13:11:00,
2013-02-14 08:21:00,62.0,61.0,29.96,NW,321,0.0,0.0,96,0.00,,,0.00,,2013-02-14 13:21:00,
2013-02-14 08:32:00,62.0,61.0,29.97,NW,321,0.0,0.0,95,0.00,,,0.00,,2013-02-14 13:32:00,
2013-02-14 08:42:00,62.0,61.0,29.97,NW,321,0.0,0.0,95,0.00,,,0.00,,2013-02-14 13:42:00,
2013-02-14 08:52:00,62.0,61.0,29.97,NW,321,0.0,0.0,95,0.00,,,0.00,,2013-02-14 13:52:00,
2013-02-14 09:01:00,63.0,61.0,29.98,NW,321,0.0,0.0,94,0.00,,,0.00,,2013-02-14 14:01:00,
2013-02-14 09:11:00,64.0,62.0,29.98,NW,321,0.0,0.0,93,0.00,,,0.00,,2013-02-14 14:11:00,
2013-02-14 09:21:00,64.0,62.0,29.98,NW,321,0.0,0.0,93,0.00,,,0.00,,2013-02-14 14:21:00,
2013-02-14 09:32:00,65.0,63.0,29.98,NW,321,0.0,0.0,92,0.00,,,0.00,,2013-02-14 14:32:00,
2013-02-14 09:42:00,65.0,63.0,29.98,NW,321,0.0,0.0,92,0.00,,,0.00,,2013-02-14 14:42:00,
2013-02-14 09:52:00,65.0,62.0,29.98,NW,323,0.0,0.0,91,0.00,,,0.00,,2013-02-14 14:52:00,
2013-02-14 10:02:00,69.0,64.0,29.97,ESE,107,0.0,0.0,83,0.00,,,0.00,,2013-02-14 15:02:00,
2013-02-14 10:11:00,70.0,65.0,29.97,East,85,0.0,0.0,83,0.00,,,0.00,,2013-02-14 15:11:00,
2013-02-14 10:21:00,70.0,65.0,29.97,East,85,0.0,0.0,83,0.00,,,0.00,,2013-02-14 15:21:00,
2013-02-14 10:32:00,71.0,65.0,29.97,ENE,76,1.0,3.0,82,0.00,,,0.00,,2013-02-14 15:32:00,
2013-02-14 10:42:00,71.0,65.0,29.97,ENE,76,1.0,3.0,82,0.00,,,0.00,,2013-02-14 15:42:00,
2013-02-14 10:52:00,72.0,66.0,29.98,West,265,0.0,2.0,81,0.00,,,0.00,,2013-02-14 15:52:00,
2013-02-14 11:02:00,72.0,65.0,29.98,ESE,103,0.0,2.0,80,0.00,,,0.00,,2013-02-14 16:02:00,
2013-02-14 11:11:00,73.0,66.0,29.97,East,87,1.0,2.0,78,0.00,,,0.00,,2013-02-14 16:11:00,
2013-02-14 11:21:00,73.0,66.0,29.97,East,87,1.0,2.0,78,0.00,,,0.00,,2013-02-14 16:21:00,
2013-02-14 11:32:00,73.0,65.0,29.97,ESE,115,2.0,3.0,77,0.00,,,0.00,,2013-02-14 16:32:00,
2013-02-14 11:41:00,73.0,65.0,29.97,ESE,115,2.0,3.0,77,0.00,,,0.00,,2013-02-14 16:41:00,
2013-02-14 11:52:00,73.0,66.0,29.97,ESE,112,1.0,3.0,78,0.00,,,0.00,,2013-02-14 16:52:00,
2013-02-14 12:01:00,74.0,66.0,29.98,NE,52,0.0,2.0,77,0.00,,,0.00,,2013-02-14 17:01:00,
2013-02-14 12:11:00,73.0,66.0,29.97,NNW,343,0.0,2.0,80,0.00,,,0.00,,2013-02-14 17:11:00,
2013-02-14 12:21:00,73.0,66.0,29.97,NNW,343,0.0,2.0,80,0.00,,,0.00,,2013-02-14 17:21:00,
2013-02-14 12:32:00,72.0,67.0,29.96,NE,47,0.0,0.0,85,0.01,,,0.01,,2013-02-14 17:32:00,
2013-02-14 12:42:00,72.0,67.0,29.96,NE,47,0.0,0.0,85,0.01,,,0.01,,2013-02-14 17:42:00,
2013-02-14 12:52:00,71.0,67.0,29.96,NNW,335,1.0,3.0,87,0.02,,,0.02,,2013-02-14 17:52:00,
2013-02-14 13:01:00,69.0,66.0,29.96,NW,322,0.0,2.0,91,0.03,,,0.03,,2013-02-14 18:01:00,
2013-02-14 13:11:00,69.0,66.0,29.96,NW,322,0.0,2.0,91,0.03,,,0.03,,2013-02-14 18:11:00,
2013-02-14 13:23:00,68.0,66.0,29.95,NW,313,1.0,3.0,93,0.04,,,0.04,,2013-02-14 18:23:00,
2013-02-14 13:32:00,67.0,65.0,29.95,NNW,338,4.0,10.0,93,0.08,,,0.09,,2013-02-14 18:32:00,
2013-02-14 13:42:00,67.0,65.0,29.95,NNW,338,4.0,10.0,93,0.08,,,0.09,,2013-02-14 18:42:00,
2013-02-14 13:52:00,65.0,63.0,29.95,NNW,336,5.0,12.0,93,0.11,,,0.13,,2013-02-14 18:52:00,
2013-02-14 14:02:00,64.0,62.0,29.95,NW,305,4.0,12.0,94,0.12,,,0.15,,2013-02-14 19:02:00,
2013-02-14 14:11:00,63.0,62.0,29.94,NNE,22,1.0,6.0,95,0.14,,,0.18,,2013-02-14 19:11:00,
2013-02-14 14:21:00,63.0,62.0,29.94,NNE,22,1.0,6.0,95,0.14,,,0.18,,2013-02-14 19:21:00,
2013-02-14 14:32:00,63.0,62.0,29.94,NNE,26,1.0,6.0,95,0.09,,,0.18,,2013-02-14 19:32:00,
2013-02-14 14:42:00,63.0,62.0,29.94,NNE,26,1.0,6.0,95,0.09,,,0.18,,2013-02-14 19:42:00,
2013-02-14 14:52:00,62.0,61.0,29.94,North,11,3.0,9.0,95,0.08,,,0.21,,2013-02-14 19:52:00,
2013-02-14 15:01:00,62.0,61.0,29.94,NE,51,2.0,5.0,95,0.07,,,0.23,,2013-02-14 20:01:00,
2013-02-14 15:11:00,62.0,61.0,29.93,North,9,1.0,3.0,96,0.07,,,0.25,,2013-02-14 20:11:00,
2013-02-14 15:21:00,62.0,61.0,29.93,North,9,1.0,3.0,96,0.07,,,0.25,,2013-02-14 20:21:00,
2013-02-14 15:32:00,62.0,61.0,29.93,NNE,19,3.0,12.0,96,0.08,,,0.26,,2013-02-14 20:32:00,
2013-02-14 15:42:00,62.0,61.0,29.93,NNE,19,3.0,12.0,96,0.08,,,0.26,,2013-02-14 20:42:00,
2013-02-14 15:52:00,62.0,61.0,29.92,NE,40,1.0,6.0,96,0.08,,,0.29,,2013-02-14 20:52:00,
2013-02-14 16:02:00,62.0,61.0,29.91,NW,323,2.0,6.0,96,0.09,,,0.32,,2013-02-14 21:02:00,
2013-02-14 16:11:00,62.0,61.0,29.91,NW,323,2.0,6.0,96,0.09,,,0.32,,2013-02-14 21:11:00,
2013-02-14 16:21:00,62.0,61.0,29.92,North,349,3.0,7.0,96,0.09,,,0.33,,2013-02-14 21:21:00,
2013-02-14 16:31:00,62.0,61.0,29.94,NW,321,2.0,5.0,96,0.09,,,0.35,,2013-02-14 21:31:00,
2013-02-14 16:42:00,62.0,61.0,29.94,NW,321,2.0,5.0,96,0.09,,,0.35,,2013-02-14 21:42:00,
2013-02-14 16:51:00,61.0,60.0,29.94,NNE,17,2.0,3.0,96,0.14,,,0.43,,2013-02-14 21:51:00,
2013-02-14 17:02:00,61.0,60.0,29.93,NNE,32,2.0,3.0,96,0.12,,,0.44,,2013-02-14 22:02:00,
2013-02-14 17:11:00,61.0,60.0,29.95,NE,50,0.0,0.0,96,0.12,,,0.45,,2013-02-14 22:11:00,
2013-02-14 17:21:00,61.0,60.0,29.95,NE,50,0.0,0.0,96,0.12,,,0.45,,2013-02-14 22:21:00,
2013-02-14 17:31:00,61.0,60.0,29.95,NNE,27,2.0,6.0,96,0.08,,,0.48,,2013-02-14 22:31:00,
2013-02-14 17:42:00,61.0,60.0,29.95,NNE,27,2.0,6.0,96,0.08,,,0.48,,2013-02-14 22:42:00,
2013-02-14 17:52:00,61.0,60.0,29.98,NNW,334,0.0,0.0,96,0.07,,,0.50,,2013-02-14 22:52:00,
2013-02-14 18:01:00,61.0,60.0,29.99,NNW,327,2.0,3.0,96,0.12,,,0.56,,2013-02-14 23:01:00,
2013-02-14 18:11:00,61.0,60.0,29.99,NNW,327,2.0,3.0,96,0.12,,,0.56,,2013-02-14 23:11:00,
2013-02-14 18:21:00,61.0,60.0,29.98,North,356,0.0,3.0,97,0.15,,,0.60,,2013-02-14 23:21:00,
2013-02-14 18:32:00,61.0,60.0,29.98,NNW,327,1.0,3.0,97,0.15,,,0.63,,2013-02-14 23:32:00,
2013-02-14 18:42:00,61.0,60.0,29.98,NNW,327,1.0,3.0,97,0.15,,,0.63,,2013-02-14 23:42:00,
2013-02-14 18:52:00,61.0,60.0,29.97,North,5,2.0,7.0,97,0.15,,,0.65,,2013-02-14 23:52:00,
2013-02-14 19:01:00,61.0,60.0,29.97,NNW,333,1.0,5.0,97,0.10,,,0.66,,2013-02-15 00:01:00,
2013-02-14 19:11:00,61.0,60.0,29.97,NNW,333,1.0,5.0,97,0.10,,,0.66,,2013-02-15 00:11:00,
2013-02-14 19:22:00,61.0,60.0,30.00,NW,320,0.0,3.0,97,0.07,,,0.67,,2013-02-15 00:22:00,
2013-02-14 19:32:00,61.0,60.0,29.99,NNW,333,0.0,0.0,97,0.05,,,0.68,,2013-02-15 00:32:00,
2013-02-14 19:42:00,61.0,60.0,29.99,NNW,333,0.0,0.0,97,0.05,,,0.68,,2013-02-15 00:42:00,
2013-02-14 19:52:00,61.0,60.0,30.01,NNW,329,0.0,3.0,97,0.06,,,0.71,,2013-02-15 00:52:00,
2013-02-14 20:02:00,60.0,59.0,30.02,North,351,1.0,3.0,97,0.12,,,0.78,,2013-02-15 01:02:00,
2013-02-14 20:11:00,60.0,59.0,30.02,North,351,1.0,3.0,97,0.12,,,0.78,,2013-02-15 01:11:00,
2013-02-14 20:21:00,60.0,59.0,30.03,NE,34,0.0,0.0,97,0.13,,,0.80,,2013-02-15 01:21:00,
2013-02-14 20:32:00,61.0,60.0,30.03,North,355,0.0,0.0,97,0.18,,,0.86,,2013-02-15 01:32:00,
2013-02-14 20:41:00,61.0,60.0,30.03,North,355,0.0,0.0,97,0.18,,,0.86,,2013-02-15 01:41:00,
2013-02-14 20:51:00,61.0,60.0,30.03,NNW,342,2.0,3.0,97,0.15,,,0.87,,2013-02-15 01:51:00,
2013-02-14 21:01:00,61.0,60.0,30.02,North,5,0.0,3.0,97,0.12,,,0.90,,2013-02-15 02:01:00,
2013-02-14 21:11:00,60.0,59.0,30.02,NE,34,2.0,5.0,97,0.11,,,0.92,,2013-02-15 02:11:00,
2013-02-14 21:21:00,60.0,59.0,30.02,NE,34,2.0,5.0,97,0.11,,,0.92,,2013-02-15 02:21:00,
2013-02-14 21:32:00,60.0,59.0,30.01,ENE,65,0.0,3.0,97,0.07,,,0.92,,2013-02-15 02:32:00,
2013-02-14 21:41:00,60.0,59.0,30.01,ENE,65,0.0,3.0,97,0.07,,,0.92,,2013-02-15 02:41:00,
2013-02-14 21:52:00,60.0,59.0,30.01,ESE,105,2.0,5.0,97,0.08,,,0.95,,2013-02-15 02:52:00,
2013-02-14 22:02:00,60.0,59.0,30.02,East,96,1.0,2.0,97,0.06,,,0.96,,2013-02-15 03:02:00,
2013-02-14 22:11:00,60.0,59.0,30.03,East,81,0.0,0.0,97,0.06,,,0.98,,2013-02-15 03:11:00,
2013-02-14 22:22:00,60.0,59.0,30.03,East,81,0.0,0.0,97,0.06,,,0.98,,2013-02-15 03:22:00,
2013-02-14 22:32:00,59.0,58.0,30.03,East,81,0.0,0.0,97,0.11,,,1.04,,2013-02-15 03:32:00,
2013-02-14 22:42:00,59.0,58.0,30.03,East,81,0.0,0.0,97,0.11,,,1.04,,2013-02-15 03:42:00,
2013-02-14 22:51:00,60.0,59.0,30.02,East,81,0.0,0.0,97,0.11,,,1.06,,2013-02-15 03:51:00,
2013-02-14 23:01:00,60.0,59.0,30.00,East,89,2.0,3.0,97,0.12,,,1.07,,2013-02-15 04:01:00,
2013-02-14 23:11:00,60.0,59.0,29.99,East,82,1.0,3.0,97,0.12,,,1.10,,2013-02-15 04:11:00,
2013-02-14 23:21:00,60.0,59.0,29.99,East,82,1.0,3.0,97,0.12,,,1.10,,2013-02-15 04:21:00,
2013-02-14 23:32:00,59.0,58.0,29.98,ESE,105,1.0,3.0,97,0.07,,,1.11,,2013-02-15 04:32:00,
2013-02-14 23:42:00,59.0,58.0,29.98,ESE,105,1.0,3.0,97,0.07,,,1.11,,2013-02-15 04:42:00,
2013-02-14 23:52:00,59.0,58.0,29.98,ESE,107,0.0,0.0,97,0.05,,,1.11,,2013-02-15 04:52:00,